Погода в Пинске

Беларусь     52˚06′41″N   26˚06′08″E
темп.,
°C
ветер,
м/с
пор.,
м/с
влажн.,
%
обл.,
%
осадки,
мм/ч
давл.,
гПа
погр.,
м
6 декабря, вс
вс600:00+5˚юв71381100 0.0 1024770
03:00+4˚юв81481100 0.0 1025750
06:00+3˚юв7138294 0.0 1025767
09:00+1˚юв7128396 0.0 1026646
12:00+1˚юв7147649 0.0 1027678
15:00+3˚юв8146425 0.0 1027765
18:00+1˚юв715630 0.0 1027634
21:00−1˚юв716560 0.0 1027573
7 декабря, пн
пн700:00−2˚юв715570 0.0 1027630
03:00−2˚вюв815550 0.0 1027639
06:00−2˚юв815570 0.0 1026664
09:00−3˚вюв815580 0.0 1026666
12:00−2˚юв915510 0.0 1026705
15:00−1˚юв814470 0.0 1026795
18:00−3˚вюв714610 0.0 1026638
21:00−4˚юв814670 0.0 1026752
8 декабря, вт
вт800:00−4˚юв7147560 0.0 1026674
03:00−4˚вюв7137364 0.0 1026635
06:00−4˚вюв7136814 0.0 1025540
09:00−5˚вюв713697 0.0 1025574
12:00−3˚вюв712640 0.0 1026628
15:00−2˚вюв612630 0.0 1025678
18:00−4˚вюв512700 0.0 1025728
21:00−5˚вюв6117339 0.0 1026672
9 декабря, ср
ср900:00−5˚вюв5107994 0.0 1026565
03:00−4˚вюв598295 0.0 1026440
06:00−3˚вюв61080100 0.0 1026527
09:00−2˚вюв51068100 0.0 1025564
12:00−3˚вюв697289 0.0 1025544
15:00−3˚вюв588091 0.1 1024517
18:00−3˚вюв6108299 0.4 1023540
21:00−3˚вюв5107287 0.4 1023510
10 декабря, чт
чт1000:00−2˚вюв5979100 0.0 1023445
03:00−2˚вюв61182100 0.1 1022461
06:00−1˚вюв61189100 0.1 1021509
09:00−1˚вюв61287100 0.1 1020527
12:00+1˚вюв71389100 0.1 1020563
15:00+1˚вюв71388100 0.3 1018567
18:00+1˚вюв71394100 1.8 1017447
21:00+2˚вюв61295100 2.9 1017449